SCP
0 0 0 0 0 0 0 0 0 0 0 0 0 0 0 0 0 0 0 0 0 0 0 0 0 0 0 0 0 0 0 0 0 0 0 0 0 0 0 0 0 0 0
0 0 0 0 0 0 0 0 0 0 0 0 0 0 0 0 0 0 0 0 0 0 0 0 0 0 0 0 0 0 0 0 0 0 0 0 0 0 0 0 0 0 0
0 0 0 0 0 0 0 0 0 0 0 0 0 0 0 0 0 0 0 0 0 0 0 0 0 0 0 0 0 0 0 0 0 0 0 0 0 0 0 0 0 0 0
0 0 0 0 0 0 0 0 0 0 0 0 0 0 0 0 0 0 0 0 0 0 0 0 0 0 0 0 0 0 0 0 0 0 0 0 0 0 0 0 0 0 0
0 0 0 0 0 0 0 0 0 0 0 0 0 0 0 0 0 0 0 0 0 0 0 0 0 0 0 0 0 0 0 0 0 0 0 0 0 0 0 0 0 0 0
0 0 0 0 0 0 0 0 0 0 0 0 0 0 0 0 0 0 0 0 0 0 0 0 0 0 0 0 0 0 0 0 0 0 0 0 0 0 0 0 0 0 0
0 0 0 0 0 0 0 0 0 0 0 0 0 0 0 0 0 0 0 0 0 0 0 0 0 0 0 0 0 0 0 0 0 0 0 0 0 0 0 0 0 0 0
0 0 0 1 0 0 0 0 0 0 0 0 0 0 0 0 0 0 0 0 0 0 0 0 0 0 0 0 0 0 0 -0 0 0 0 0 0 0 0 0 0 0 0
0 0 0 0 0 0 0 0 0 0 0 0 0 0 0 0 0 0 0 0 0 0 0 0 0 0 0 0 0 0 0 -0 -0 0 0 0 0 0 0 0 0 0 0
0 0 0 0 0 0 0 0 0 0 0 0 0 0 0 0 0 0 0 0 0 0 0 0 0 0 0 0 0 0 0 0 0 0 0 0 0 0 0 0 0 0 0
0 0 0 0 0 0 0 0 0 0 0 0 0 0 0 0 0 0 0 0 0 0 0 0 0 0 0 0 0 0 0 0 0 0 0 0 0 0 0 0 0 0 0
1 1 0 0 0 0 0 1 0 0 0 0 0 0 0 0 0 0 0 0 0 0 0 0 0 0 0 0 0 0 0 0 0 0 0 0 0 0 0 0 0 0 0
1 1 1 1 1 1 1 1 1 1 1 1 1 1 1 1 1 1 1 1 1 0 0 0 0 0 0 0 0 0 0 0 0 0 0 0 0 0 0 0 0 0 0
1 1 1 1 1 1 1 1 1 1 1 1 1 1 1 1 1 1 1 1 1 1 1 1 1 1 1 1 0 0 0 0 0 0 0 0 0 0 0 0 0 0 0
1 1 1 1 1 1 1 1 1 1 1 1 1 1 1 1 1 1 1 1 1 1 1 1 1 1 1 1 1 0 0 0 0 0 0 0 0 0 0 0 0 0 0
1 1 1 1 1 1 1 1 1 1 1 1 1 1 1 1 1 1 1 1 1 1 1 1 1 1 1 1 1 1 0 0 0 0 0 0 0 0 0 0 0 0 0
1 1 1 1 1 1 1 1 1 1 1 1 1 1 1 1 1 1 1 1 1 1 1 1 1 1 1 1 1 1 1 1 0 0 0 0 0 0 0 0 0 0 0
1 1 1 1 0 1 1 0 0 0 1 1 1 1 1 1 1 1 1 1 1 1 1 1 1 1 1 1 1 1 1 1 1 1 1 1 1 1 1 1 1 1 1
1 1 0 0 0 0 0 0 0 0 0 0 0 0 0 0 0 0 1 1 1 1 1 1 1 1 1 1 1 1 1 1 1 1 1 1 1 1 1 1 1 1 1
0 0 0 0 0 0 0 0 0 0 0 0 0 0 0 0 0 0 0 0 0 0 1 1 1 1 1 1 1 1 1 1 1 1 1 1 1 1 1 1 1 1 1
0 0 0 0 0 0 0 0 0 0 0 0 0 0 0 0 0 0 0 0 0 0 0 0 1 1 1 1 1 1 1 1 1 1 1 1 1 1 1 1 1 1 1
0 0 0 0 0 0 0 0 0 0 0 0 0 0 0 0 0 0 0 0 0 0 0 0 0 0 1 1 1 1 0 0 0 0 1 1 1 1 1 1 1 1 1
0 0 0 0 0 0 0 0 0 0 0 0 0 0 0 0 0 0 0 0 0 0 0 0 0 0 0 1 1 1 1 0 0 0 0 1 1 1 1 1 1 1 1
0 0 0 0 0 0 0 0 0 0 0 0 0 0 0 0 0 0 0 0 0 0 0 0 0 0 0 0 1 1 1 0 0 0 0 0 1 1 1 1 1 1 1
0 0 0 0 0 0 0 0 0 0 0 0 0 0 0 0 0 0 0 0 0 0 0 0 0 0 0 0 0 0 0 0 0 0 0 0 0 1 1 1 1 1 1
0 0 0 0 0 0 0 0 0 0 0 0 0 0 0 0 0 0 0 0 0 0 0 0 0 0 0 0 0 0 0 0 0 0 0 0 0 0 1 1 1 1 1
Wind_Speed
13 17 18 15 14 13 14 14 15 15 15 15 15 15 14 13 13 12 11 10 9 9 8 7 7 6 7 7 7 8 8 9 10 10 11 11 11 12 13 14 13 14 16
15 18 18 15 14 13 13 13 14 14 14 15 15 14 14 13 12 11 11 10 9 8 8 7 7 7 7 7 8 8 9 9 10 10 11 11 11 11 11 10 8 14 15
16 18 18 15 14 13 13 13 13 14 14 14 14 13 13 12 12 11 10 9 9 8 7 7 6 7 7 8 8 8 9 9 9 10 10 10 12 10 10 11 15 16 15
16 17 16 16 14 13 13 12 12 12 13 12 13 12 12 12 11 10 9 9 8 7 7 6 6 6 7 7 7 8 8 9 9 9 8 9 11 11 11 13 15 15 15
15 15 16 17 15 13 12 12 12 12 12 11 11 11 11 10 10 10 9 8 7 7 7 6 6 6 6 6 7 7 8 9 8 9 6 7 9 11 11 13 14 14 14
15 15 17 15 14 13 13 12 11 11 11 11 10 10 10 9 9 9 8 8 7 6 6 6 6 6 6 6 6 7 8 8 9 6 6 7 9 11 11 12 13 13 13
13 14 17 15 14 13 12 11 11 11 10 10 10 9 9 8 8 8 8 7 7 6 6 6 6 6 6 6 6 7 7 7 7 5 6 6 10 11 11 12 12 13 13
12 12 15 14 13 13 12 11 11 10 10 10 9 9 8 8 7 7 7 7 6 6 6 6 6 6 6 6 6 6 6 8 7 6 6 6 11 10 10 11 12 12 12
10 11 12 13 12 12 11 11 11 10 10 9 9 9 8 8 8 7 7 7 7 7 6 6 7 7 7 7 7 7 6 7 8 4 6 6 12 10 10 11 12 12 12
8 9 9 10 10 10 11 11 10 10 10 9 9 9 9 9 9 9 9 9 8 8 8 8 7 8 8 8 8 8 7 8 9 6 5 8 12 11 11 11 12 12 12
7 6 6 7 7 7 8 9 10 9 9 9 9 10 9 9 9 9 10 8 9 9 9 9 9 8 8 9 10 9 9 8 8 5 4 11 12 11 12 12 12 13 13
8 7 5 5 5 5 4 5 5 6 6 7 6 7 7 6 5 6 5 7 9 9 10 11 9 9 10 8 11 11 8 10 7 5 5 13 12 12 12 13 13 13 13
7 6 5 4 4 4 3 3 3 3 3 6 6 6 5 5 4 4 3 6 8 10 9 9 10 9 8 6 6 8 9 8 6 5 6 13 12 13 14 14 14 14 14
6 5 4 4 3 2 2 2 3 2 2 3 3 4 4 3 4 4 4 4 5 5 6 6 5 7 8 8 8 8 9 7 6 5 5 13 12 13 14 15 15 16 15
6 4 3 2 1 1 1 2 1 2 2 2 2 3 4 4 4 4 4 4 5 5 5 6 6 7 8 8 8 10 10 9 9 8 5 12 13 14 15 16 16 17 17
5 4 4 3 2 1 1 1 0 1 1 2 2 2 4 4 4 4 5 5 5 5 5 5 7 6 7 7 9 10 10 9 9 10 9 9 14 14 16 16 17 18 19
6 5 4 3 2 1 0 1 1 0 1 1 1 2 2 3 4 4 4 4 4 4 5 6 7 6 6 8 10 11 9 10 10 11 11 8 10 15 17 17 17 17 19
7 6 6 4 4 3 2 1 1 1 0 1 1 1 1 2 3 4 4 4 3 4 5 5 6 6 7 7 8 8 8 8 12 11 11 10 9 9 15 19 18 18 19
7 7 7 5 5 4 3 2 2 1 1 1 1 1 1 2 3 3 3 3 3 4 4 6 5 5 6 7 8 8 8 9 10 11 12 13 11 10 10 13 19 18 19
7 6 6 5 5 3 2 2 1 1 1 1 1 2 2 2 3 3 3 3 4 4 4 4 5 5 6 6 8 8 8 9 9 10 13 12 12 14 14 12 12 15 20
6 5 5 5 4 3 3 3 2 2 2 2 2 3 3 3 3 3 4 2 4 5 5 5 5 6 6 5 6 7 8 11 11 10 11 11 13 14 13 13 11 11 12
5 4 3 3 3 3 3 3 3 3 3 2 2 2 3 4 4 4 4 5 4 4 5 5 5 6 5 5 5 6 6 7 9 11 10 11 13 12 13 14 14 13 11
3 3 3 4 3 4 4 3 3 2 3 2 2 2 3 4 4 5 5 5 5 6 5 5 6 8 6 5 6 5 5 6 4 6 9 10 11 10 11 11 14 15 15
2 2 2 3 3 4 4 5 6 5 5 5 4 4 5 4 5 5 5 5 6 6 5 7 6 6 7 7 5 6 7 6 5 5 5 7 10 10 12 11 13 14 15
2 2 2 3 3 4 5 5 6 6 6 5 5 5 6 5 5 5 6 5 6 6 6 7 6 7 6 7 6 5 6 6 7 7 7 6 6 8 10 11 10 10 12
2 2 2 3 3 4 5 5 6 7 7 8 7 7 6 5 5 5 6 6 7 6 6 7 7 9 8 8 7 6 6 6 6 6 8 7 6 6 7 8 9 9 10
Wind_Direction
151 143 144 151 151 150 149 150 151 151 151 151 151 150 149 147 146 144 141 138 135 130 126 123 121 122 124 127 122 117 119 120 119 119 119 118 121 122 124 131 137 116 118
146 142 146 151 152 151 148 147 147 149 151 153 153 153 152 151 150 149 147 144 142 137 130 124 119 116 118 119 120 120 122 126 128 127 129 126 124 127 132 136 115 114 125
144 142 151 151 151 150 147 145 145 148 151 153 154 155 156 155 155 154 152 151 148 143 136 129 122 118 116 116 120 123 127 132 134 140 162 146 128 130 128 116 112 125 126
144 146 153 148 151 150 148 147 147 148 150 153 155 156 157 157 157 157 155 155 154 151 145 140 132 126 122 121 123 126 131 134 140 171 176 135 133 129 130 126 129 131 129
147 147 142 151 151 150 149 149 150 150 151 153 155 158 159 160 161 161 161 161 161 158 155 150 144 137 131 129 130 131 134 138 155 208 128 127 123 133 138 136 137 135 134
150 146 142 154 152 152 152 151 152 153 154 156 158 161 163 165 166 167 169 171 170 168 165 158 152 148 144 141 141 141 141 149 194 165 137 143 131 141 146 144 141 139 139
150 145 145 154 153 154 155 155 156 158 160 162 164 167 169 172 176 177 177 179 177 174 173 169 164 161 157 155 154 153 157 183 222 147 152 148 125 141 153 151 148 146 146
147 145 140 153 156 158 160 162 163 166 167 169 173 176 178 182 187 189 189 188 188 188 188 183 177 174 171 169 169 169 174 217 205 165 166 145 124 153 162 157 154 153 152
145 144 146 158 162 165 167 170 171 174 176 179 182 185 189 195 199 201 200 200 199 200 202 199 191 187 185 183 184 186 195 234 251 173 178 148 138 165 172 166 163 161 160
142 144 150 161 165 171 172 175 180 183 186 188 191 196 200 205 210 212 213 205 209 209 211 212 207 201 197 194 194 197 204 226 238 194 190 141 148 177 181 177 175 171 169
144 147 160 160 169 184 180 168 185 191 196 199 199 201 210 218 214 207 219 201 216 220 220 219 217 214 209 202 203 203 211 227 225 218 192 132 161 187 191 187 184 181 178
151 153 161 170 172 191 193 174 197 202 197 212 215 211 219 227 238 240 183 203 224 231 231 225 222 220 225 214 197 203 221 225 231 214 173 144 173 196 200 194 191 188 186
141 146 154 167 176 189 192 202 209 214 210 218 222 226 233 236 236 243 230 210 221 228 232 216 216 225 224 230 221 211 225 229 224 224 176 157 183 202 207 201 198 195 193
127 134 150 157 167 193 197 220 225 229 232 240 231 242 241 239 241 241 242 248 238 234 235 240 237 231 233 233 236 239 231 233 235 230 181 164 188 206 213 208 204 201 199
117 119 112 108 133 177 185 241 244 254 251 258 273 263 261 253 250 248 249 249 251 250 238 234 240 242 239 236 235 235 239 238 241 234 204 177 196 209 215 213 210 207 204
100 99 96 94 99 191 195 187 223 294 290 290 291 288 274 266 262 259 255 252 252 253 259 256 249 246 244 240 239 238 238 237 240 239 237 200 201 211 217 216 214 213 210
97 93 89 92 95 87 89 98 94 299 293 298 289 282 270 268 260 252 252 250 256 257 256 257 257 251 248 244 241 239 236 237 238 237 239 236 215 208 214 218 217 217 215
86 83 71 63 71 70 57 41 36 8 352 295 284 285 286 277 268 261 257 255 255 258 258 257 255 250 246 248 246 242 238 235 238 237 237 233 235 227 210 213 215 215 216
83 80 75 64 58 59 58 48 45 31 9 345 343 343 331 295 288 275 269 263 252 256 257 259 253 250 248 244 245 239 239 237 236 237 235 234 230 232 231 203 207 213 216
84 78 77 76 60 52 60 59 26 25 3 354 359 12 340 315 308 295 266 262 263 255 251 251 259 252 258 253 253 252 242 238 234 233 233 231 228 227 228 228 208 211 214
86 79 67 57 55 29 20 356 353 357 349 352 2 16 345 331 323 300 300 283 264 259 260 257 258 251 247 246 251 252 245 238 235 233 231 231 227 226 227 227 226 220 208
95 82 77 64 48 16 21 348 341 338 323 341 353 13 351 340 325 302 315 294 283 274 257 258 256 266 257 238 252 261 257 237 226 228 226 226 229 225 224 222 223 223 224
101 74 51 41 27 17 356 333 336 302 285 309 329 331 344 329 321 322 312 301 297 280 272 268 261 258 261 252 241 255 264 261 264 228 227 231 229 228 228 225 222 221 218
93 75 56 36 20 9 343 348 336 327 328 336 319 330 319 312 314 310 305 301 294 287 279 265 257 265 264 264 245 242 259 286 281 271 239 229 227 229 232 231 227 219 217
91 69 54 34 14 6 349 338 319 324 325 321 322 320 308 304 301 303 302 300 294 284 284 281 280 268 266 269 269 257 249 247 249 263 266 252 236 232 230 229 231 227 219
89 63 40 26 7 353 338 338 330 327 322 320 316 316 305 302 297 304 300 298 287 288 286 278 275 264 265 269 272 266 258 255 250 253 263 264 259 248 238 235 232 227 223